Weather History for Ellsworth AFB, SD

Change the Weather History Date:

Wednesday, January 2, 2013

  Actual Average Record
Temperature  
Mean Temperature 25 °F -  
Max Temperature 29 °F 36 °F 68 °F (1998)
Min Temperature 20 °F 14 °F 0 °F (2002)
Degree Days  
Heating Degree Days 40    
Moisture  
Dew Point 19 °F    
Average Humidity 79    
Maximum Humidity 87    
Minimum Humidity 59    
Precipitation  
Precipitation 0.00 in - - ()
Sea Level Pressure  
Sea Level Pressure 30.23 in    
Wind  
Wind Speed 24 mph (NNW)    
Max Wind Speed 33 mph    
Max Gust Speed 44 mph    
Visibility 8 miles    
Events Fog , Snow    
Averages and records for this station are not official NWS values.
T = Trace of Precipitation, MM = Missing Value Source: NWS Daily Summary

Daily Weather History Graph

Daily Weather History Graph

Search for Another Location

Airport:

Trip Planner

Search our weather history database for the weather conditions in past years. The results will help you decide how hot, cold, wet, or windy it might be!

Date:

Astronomy

Jan. 02, 2013 Rise Set
Actual Time 7:27 AM MST 4:25 PM MST
Civil Twilight 6:54 AM MST 4:58 PM MST
Nautical Twilight 6:18 AM MST 5:35 PM MST
Astronomical Twilight 5:43 AM MST 6:10 PM MST
Moon 10:13 PM MST (1/2) 9:58 AM MST (1/2)
Length of Visible Light 10h 04m
Length of Day
8h 58m
Waning Gibbous, 74% of the Moon is Illuminated
Jan 2
Waning Gibbous
Jan 4
Last Quarter
Jan 11
New
Jan 18
First Quarter
Jan 26
Full

Hourly Weather History & Observations

Time (MST) Temp. Windchill Dew Point Humidity Pressure Visibility Wind Dir Wind Speed Gust Speed Precip Events Conditions
12:16 AM 28.4 °F 15.1 °F 24.8 °F 86% 30.12 in 10.0 mi NW 20.7 mph 26.5 mph N/A   Mostly Cloudy
12:55 AM 28.2 °F 14.8 °F 24.6 °F 86% 30.10 in 10.0 mi NW 20.7 mph - N/A   Partly Cloudy
1:40 AM 28.4 °F 15.1 °F 23.0 °F 80% 30.11 in 10.0 mi NW 20.7 mph - N/A   Scattered Clouds
1:55 AM 28.8 °F 15.5 °F 22.3 °F 77% 30.12 in 10.0 mi NW 20.7 mph - N/A   Mostly Cloudy
2:55 AM 28.6 °F 15.0 °F 19.8 °F 70% 30.12 in 10.0 mi NW 21.9 mph - N/A   Overcast
3:55 AM 28.4 °F 15.1 °F 19.6 °F 70% 30.13 in 10.0 mi NW 20.7 mph 28.8 mph N/A   Overcast
4:55 AM 27.9 °F 12.8 °F 22.3 °F 80% 30.14 in 10.0 mi NNW 26.5 mph - N/A   Overcast
5:05 AM 28.4 °F 14.4 °F 23.0 °F 80% 30.14 in 5.0 mi NW 23.0 mph 29.9 mph N/A Snow Light Snow
5:35 AM 28.4 °F 13.8 °F 21.2 °F 74% 30.13 in 10.0 mi NW 25.3 mph 31.1 mph N/A   Overcast
5:50 AM 26.6 °F 10.3 °F 23.0 °F 86% 30.14 in 5.0 mi NW 29.9 mph 33.4 mph N/A Snow Light Snow
5:55 AM 27.1 °F 12.4 °F 22.3 °F 82% 30.14 in 8.0 mi NW 24.2 mph 31.1 mph 0.00 in Snow Light Snow
6:05 AM 26.6 °F 12.4 °F 21.2 °F 80% 30.14 in 10.0 mi NW 21.9 mph 29.9 mph N/A   Overcast
6:55 AM 27.3 °F 13.6 °F 19.8 °F 73% 30.15 in 10.0 mi NNW 20.7 mph - 0.00 in   Overcast
7:55 AM 27.5 °F 12.9 °F 20.1 °F 74% 30.14 in 10.0 mi NW 24.2 mph 31.1 mph N/A   Overcast
8:55 AM 27.5 °F 11.8 °F 20.8 °F 76% 30.16 in 10.0 mi NW 28.8 mph 32.2 mph N/A   Overcast
8:58 AM 26.6 °F 11.1 °F 21.2 °F 80% 30.16 in 10.0 mi NW 26.5 mph - N/A Snow Light Snow
9:13 AM 26.6 °F 13.8 °F 23.0 °F 86% 30.18 in 10.0 mi NW 17.3 mph - N/A   Overcast
9:55 AM 28.4 °F 14.7 °F 18.9 °F 67% 30.18 in 10.0 mi NW 21.9 mph 27.6 mph 0.00 in   Mostly Cloudy
10:49 AM 28.4 °F 15.1 °F 21.2 °F 74% 30.17 in 10.0 mi NW 20.7 mph 29.9 mph N/A   Overcast
10:55 AM 27.3 °F 12.7 °F 20.3 °F 75% 30.17 in 10.0 mi NW 24.2 mph 28.8 mph 0.00 in   Overcast
11:13 AM 28.4 °F 15.8 °F 19.4 °F 69% 30.17 in 10.0 mi NW 18.4 mph - N/A   Overcast
11:55 AM 29.3 °F 15.9 °F 16.7 °F 59% 30.15 in 10.0 mi NNW 21.9 mph - 0.00 in   Overcast
12:55 PM 28.0 °F 12.3 °F 16.9 °F 63% 30.16 in 10.0 mi NNW 29.9 mph 38.0 mph N/A   Overcast
1:00 PM 28.4 °F 12.5 °F 17.6 °F 64% 30.17 in 10.0 mi NNW 31.1 mph 38.0 mph N/A   Overcast
1:13 PM 24.8 °F 7.1 °F 19.4 °F 80% 30.17 in 2.5 mi NNW 33.4 mph 43.7 mph N/A Snow Light Snow
1:16 PM 24.8 °F 7.3 °F 19.4 °F 80% 30.18 in 1.0 mi NNW 32.2 mph 43.7 mph N/A Snow Light Snow
1:20 PM 24.8 °F 7.1 °F 19.4 °F 80% 30.18 in 0.8 mi NNW 33.4 mph 43.7 mph N/A Snow Light Snow
1:24 PM 23.0 °F 4.9 °F 19.4 °F 86% 30.18 in 0.5 mi NNW 32.2 mph 43.7 mph N/A Fog , Snow Light Freezing Fog
1:26 PM 23.0 °F 4.9 °F 19.4 °F 86% 30.19 in 0.5 mi NNW 32.2 mph 43.7 mph N/A Fog , Snow Light Freezing Fog
1:33 PM 23.0 °F 5.4 °F 19.4 °F 86% 30.19 in 0.8 mi NNW 29.9 mph 42.6 mph N/A Snow Light Snow
1:55 PM 22.8 °F 4.9 °F 19.4 °F 87% 30.19 in 1.0 mi NNW 31.1 mph 39.1 mph 0.00 in Snow Light Snow
2:05 PM 23.0 °F 4.9 °F 19.4 °F 86% 30.19 in 2.0 mi NW 32.2 mph 41.4 mph N/A Snow Light Snow
2:09 PM 23.0 °F 5.4 °F 19.4 °F 86% 30.19 in 3.0 mi NW 29.9 mph 41.4 mph N/A Snow Light Snow
2:28 PM 23.0 °F 6.0 °F 17.6 °F 80% 30.20 in 10.0 mi NNW 27.6 mph 35.7 mph N/A   Overcast
2:43 PM 23.0 °F 6.0 °F 17.6 °F 80% 30.21 in 10.0 mi NNW 27.6 mph 36.8 mph N/A   Overcast
2:55 PM 23.5 °F 7.6 °F 17.4 °F 77% 30.23 in 10.0 mi NNW 24.2 mph 33.4 mph 0.00 in   Overcast
2:56 PM 23.0 °F 7.2 °F 17.6 °F 80% 30.23 in 10.0 mi NNW 23.0 mph 33.4 mph N/A Snow Light Snow
2:57 PM 23.0 °F 7.2 °F 17.6 °F 80% 30.23 in 10.0 mi NNW 23.0 mph 33.4 mph N/A Snow Light Snow
3:06 PM 23.0 °F 6.0 °F 17.6 °F 80% 30.23 in 9.0 mi NNW 27.6 mph 34.5 mph N/A Snow Light Snow
3:12 PM 23.0 °F 5.7 °F 17.6 °F 80% 30.24 in 8.0 mi NW 28.8 mph 35.7 mph N/A Snow Light Snow
3:13 PM 23.0 °F 6.3 °F 17.6 °F 80% 30.24 in 8.0 mi NNW 26.5 mph 35.7 mph N/A Snow Light Snow
3:16 PM 23.0 °F 6.0 °F 17.6 °F 80% 30.24 in 8.0 mi NNW 27.6 mph 35.7 mph N/A Snow Light Snow
3:17 PM 23.0 °F 6.0 °F 17.6 °F 80% 30.24 in 7.0 mi NNW 27.6 mph 35.7 mph N/A Snow Light Snow
3:27 PM 23.0 °F 6.0 °F 17.6 °F 80% 30.25 in 8.0 mi NNW 27.6 mph 35.7 mph N/A Snow Light Snow
3:28 PM 23.0 °F 6.0 °F 17.6 °F 80% 30.25 in 9.0 mi NNW 27.6 mph 35.7 mph N/A   Overcast
3:30 PM 23.0 °F 6.3 °F 17.6 °F 80% 30.25 in 9.0 mi NNW 26.5 mph 35.7 mph N/A   Overcast
3:31 PM 23.0 °F 6.0 °F 17.6 °F 80% 30.25 in 10.0 mi NNW 27.6 mph 34.5 mph N/A   Overcast
3:55 PM 22.5 °F 5.0 °F 17.1 °F 80% 30.26 in 10.0 mi NNW 28.8 mph 34.5 mph 0.00 in Snow Low Drifting Snow
4:16 PM 23.0 °F 6.9 °F 17.6 °F 80% 30.28 in 10.0 mi NNW 24.2 mph 34.5 mph N/A   Overcast
4:34 PM 21.2 °F 4.5 °F 17.6 °F 86% 30.29 in 6.0 mi NNW 24.2 mph 33.4 mph N/A Snow Light Snow
4:40 PM 21.2 °F 4.9 °F 17.6 °F 86% 30.29 in 6.0 mi NNW 23.0 mph 29.9 mph N/A Snow Light Snow
5:21 PM 23.0 °F 8.0 °F 17.6 °F 80% 30.30 in 10.0 mi NNW 20.7 mph - N/A Snow Light Snow
5:46 PM 23.0 °F 6.3 °F 17.6 °F 80% 30.31 in 10.0 mi NNW 26.5 mph - N/A Snow Light Snow
5:55 PM 21.9 °F 4.5 °F 16.9 °F 81% 30.31 in 10.0 mi NW 27.6 mph 34.5 mph 0.00 in Snow Low Drifting Snow
6:10 PM 21.2 °F 3.9 °F 15.8 °F 80% 30.32 in 10.0 mi NW 26.5 mph - N/A   Overcast
6:44 PM 21.2 °F 3.9 °F 15.8 °F 80% 30.32 in 10.0 mi NW 26.5 mph 32.2 mph N/A   Overcast
6:55 PM 21.9 °F 6.5 °F 16.2 °F 78% 30.34 in 10.0 mi NW 20.7 mph 28.8 mph 0.00 in   Overcast
7:55 PM 21.6 °F 7.8 °F 15.4 °F 77% 30.35 in 10.0 mi NW 16.1 mph - N/A   Overcast
8:55 PM 21.9 °F 7.3 °F 14.7 °F 74% 30.38 in 10.0 mi NNW 18.4 mph - N/A   Overcast
9:55 PM 21.6 °F 6.9 °F 14.9 °F 76% 30.39 in 10.0 mi NNW 18.4 mph 24.2 mph 0.00 in Snow Light Snow
10:06 PM 21.2 °F 6.8 °F 14.0 °F 74% 30.39 in 10.0 mi NNW 17.3 mph - N/A   Overcast
10:08 PM 21.2 °F 6.8 °F 14.0 °F 74% 30.39 in 10.0 mi NNW 17.3 mph - N/A Snow Light Snow
10:24 PM 21.2 °F 8.3 °F 15.8 °F 80% 30.40 in 10.0 mi NNW 13.8 mph - N/A   Overcast
10:55 PM 21.6 °F 7.8 °F 14.9 °F 76% 30.40 in 10.0 mi NNW 16.1 mph - 0.00 in   Overcast
11:07 PM 21.2 °F 7.8 °F 14.0 °F 74% 30.41 in 10.0 mi NNW 15.0 mph - N/A Snow Light Snow
11:25 PM 21.2 °F 7.8 °F 15.8 °F 80% 30.41 in 10.0 mi NNW 15.0 mph - N/A   Overcast
11:50 PM 21.2 °F 7.8 °F 15.8 °F 80% 30.40 in 10.0 mi NNW 15.0 mph - N/A   Overcast
11:55 PM 20.8 °F 7.9 °F 15.1 °F 78% 30.40 in 10.0 mi NNW 13.8 mph - 0.00 in   Overcast